,,PA_Meas_PMT16A,,PR_Meas_QMR101_102,,RH_Meas_QMH101,,SR_Meas_QMS101,,TA_Meas_QMH101,,GenWind,,GenWind,
time,status,PA,status,PR,status,RH,status,SR,status,TA,status,DirAvg,status,SpdAvg,
2010-01-01, 00:00:04,VALID,916.972,VALID,0,VALID,96.5277,VALID,0,VALID,19.1734,VALID,145,VALID,0.552734,
2010-01-01, 00:01:04,VALID,916.929,VALID,0,VALID,96.5658,VALID,0,VALID,19.1734,VALID,144,VALID,0.695703,
2010-01-01, 00:02:04,VALID,916.948,VALID,0,VALID,96.5506,VALID,0,VALID,19.1749,VALID,144,VALID,0.786719,
2010-01-01, 00:03:04,VALID,916.926,VALID,0,VALID,96.5887,VALID,0,VALID,19.1539,VALID,144,VALID,0.620313,
2010-01-01, 00:04:04,VALID,916.916,VALID,0,VALID,96.5887,VALID,0,VALID,19.1539,VALID,143,VALID,1.17344,
2010-01-01, 00:05:04,VALID,916.881,VALID,0,VALID,96.5582,VALID,0,VALID,19.1749,VALID,130,VALID,1.43203,
2010-01-01, 00:06:04,VALID,916.915,VALID,0,VALID,96.5277,VALID,0,VALID,19.1734,VALID,133,VALID,1.26367,
2010-01-01, 00:07:04,VALID,916.895,VALID,0,VALID,96.5201,VALID,0,VALID,19.1749,VALID,115,VALID,0.849609,
2010-01-01, 00:08:04,VALID,916.89,VALID,0,VALID,96.5277,VALID,0,VALID,19.1539,VALID,115,VALID,1.16211,
2010-01-01, 00:09:04,VALID,916.859,VALID,0,VALID,96.4362,VALID,0,VALID,19.1539,VALID,115,VALID,1.37812,
2010-01-01, 00:10:04,VALID,916.866,VALID,0,VALID,96.4133,VALID,0,VALID,19.1749,VALID,115,VALID,1.03203,
2010-01-01, 00:11:04,VALID,916.87,VALID,0,VALID,96.3676,VALID,0,VALID,19.1539,VALID,115,VALID,0.876172,
2010-01-01, 00:12:04,VALID,916.851,VALID,0,VALID,96.3295,VALID,0,VALID,19.1539,VALID,115,VALID,1.30195,
2010-01-01, 00:13:04,VALID,916.857,VALID,0,VALID,96.3447,VALID,0,VALID,19.1944,VALID,115,VALID,0.757422,
2010-01-01, 00:14:04,VALID,916.826,VALID,0,VALID,96.3676,VALID,0,VALID,19.1749,VALID,115,VALID,0.683203,
2010-01-01, 00:15:04,VALID,916.859,VALID,0,VALID,96.3829,VALID,0,VALID,19.1539,VALID,115,VALID,0.821875,
2010-01-01, 00:16:04,VALID,916.83,VALID,0,VALID,96.4133,VALID,0,VALID,19.1539,VALID,165,VALID,1.15937,
2010-01-01, 00:17:04,VALID,916.865,VALID,0,VALID,96.4591,VALID,0,VALID,19.1539,VALID,170,VALID,0.300781,
2010-01-01, 00:18:04,VALID,916.842,VALID,0,VALID,96.4896,VALID,0,VALID,19.1554,VALID,170,VALID,0.770703,
2010-01-01, 00:19:04,VALID,916.835,VALID,0,VALID,96.5048,VALID,0,VALID,19.1539,VALID,170,VALID,0.307031,
2010-01-01, 00:20:04,VALID,916.831,VALID,0,VALID,96.5353,VALID,0,VALID,19.1344,VALID,144,VALID,0.926172,
2010-01-01, 00:21:04,VALID,916.831,VALID,0,VALID,96.4972,VALID,0,VALID,19.1359,VALID,142,VALID,0.952734,
2010-01-01, 00:22:04,VALID,916.834,VALID,0,VALID,96.4515,VALID,0,VALID,19.1359,VALID,131,VALID,1.22461,
2010-01-01, 00:23:04,VALID,916.799,VALID,0,VALID,96.421,VALID,0,VALID,19.1359,VALID,124,VALID,0.438672,
2010-01-01, 00:24:04,VALID,916.78,VALID,0,VALID,96.3829,VALID,0,VALID,19.1149,VALID,124,VALID,1.42656,
2010-01-01, 00:25:04,VALID,916.76,VALID,0,VALID,96.3752,VALID,0,VALID,19.1149,VALID,118,VALID,1.1543,
2010-01-01, 00:26:04,VALID,916.766,VALID,0,VALID,96.3981,VALID,0,VALID,19.0954,VALID,115,VALID,0.696094,
2010-01-01, 00:27:04,VALID,916.767,VALID,0,VALID,96.3905,VALID,0,VALID,19.1164,VALID,115,VALID,1.38086,
2010-01-01, 00:28:04,VALID,916.74,VALID,0,VALID,96.3524,VALID,0,VALID,19.0954,VALID,113,VALID,0.885547,
2010-01-01, 00:29:04,VALID,916.743,VALID,0,VALID,96.3142,VALID,0,VALID,19.1164,VALID,97,VALID,1.0875,
2010-01-01, 00:30:04,VALID,916.698,VALID,0,VALID,96.3066,VALID,0,VALID,19.0954,VALID,97,VALID,1.00937,
2010-01-01, 00:31:04,VALID,916.701,VALID,0,VALID,96.3066,VALID,0,VALID,19.0954,VALID,97,VALID,0.910156,
2010-01-01, 00:32:04,VALID,916.682,VALID,0,VALID,96.2685,VALID,0,VALID,19.0759,VALID,97,VALID,0.884375,
2010-01-01, 00:33:04,VALID,916.689,VALID,0,VALID,96.2609,VALID,0,VALID,19.0774,VALID,97,VALID,0.691016,
2010-01-01, 00:34:04,VALID,916.674,VALID,0,VALID,96.2533,VALID,0,VALID,19.0759,VALID,98,VALID,1.04297,
2010-01-01, 00:35:04,VALID,916.633,VALID,0,VALID,96.3447,VALID,0,VALID,19.0759,VALID,98,VALID,1.23906,
2010-01-01, 00:36:04,VALID,916.674,VALID,0,VALID,96.3371,VALID,0,VALID,19.0774,VALID,99,VALID,1.08984,
2010-01-01, 00:37:04,VALID,916.676,VALID,0,VALID,96.3295,VALID,0,VALID,19.0774,VALID,136,VALID,1.06875,
2010-01-01, 00:38:04,VALID,916.657,VALID,0,VALID,96.3676,VALID,0,VALID,19.0774,VALID,136,VALID,1.09453,
2010-01-01, 00:39:04,VALID,916.676,VALID,0,VALID,96.4133,VALID,0,VALID,19.0564,VALID,136,VALID,1.17188,
2010-01-01, 00:40:04,VALID,916.675,VALID,0,VALID,96.4667,VALID,0,VALID,19.0774,VALID,137,VALID,1.14883,
2010-01-01, 00:41:04,VALID,916.661,VALID,0,VALID,96.5048,VALID,0,VALID,19.0564,VALID,147,VALID,0.928125,
2010-01-01, 00:42:04,VALID,916.675,VALID,0,VALID,96.5124,VALID,0,VALID,19.0564,VALID,147,VALID,0.902344,
2010-01-01, 00:43:04,VALID,916.673,VALID,0,VALID,96.5124,VALID,0,VALID,19.0774,VALID,147,VALID,0.937891,
2010-01-01, 00:44:04,VALID,916.659,VALID,0,VALID,96.4972,VALID,0,VALID,19.0774,VALID,147,VALID,1.16797,
2010-01-01, 00:45:04,VALID,916.641,VALID,0,VALID,96.5811,VALID,0,VALID,19.0774,VALID,147,VALID,0.864844,
2010-01-01, 00:46:04,VALID,916.653,VALID,0,VALID,96.5353,VALID,0,VALID,19.0564,VALID,147,VALID,1.11133,
2010-01-01, 00:47:04,VALID,916.641,VALID,0,VALID,96.5811,VALID,0,VALID,19.0564,VALID,147,VALID,0.817578,
2010-01-01, 00:48:04,VALID,916.613,VALID,0,VALID,96.5734,VALID,0,VALID,19.0564,VALID,147,VALID,1.04453,
2010-01-01, 00:49:04,VALID,916.618,VALID,0,VALID,96.6039,VALID,0,VALID,19.0759,VALID,147,VALID,0.689453,
2010-01-01, 00:50:04,VALID,916.589,VALID,0,VALID,96.6344,VALID,0,VALID,19.0969,VALID,147,VALID,0.811328,
2010-01-01, 00:51:04,VALID,916.599,VALID,0,VALID,96.6268,VALID,0,VALID,19.0969,VALID,147,VALID,1.28789,
2010-01-01, 00:52:04,VALID,916.573,VALID,0,VALID,96.6497,VALID,0,VALID,19.0954,VALID,150,VALID,1.09844,
2010-01-01, 00:53:04,VALID,916.558,VALID,0,VALID,96.6192,VALID,0,VALID,19.1164,VALID,130,VALID,0.810547,
2010-01-01, 00:54:04,VALID,916.549,VALID,0,VALID,96.5277,VALID,0,VALID,19.0759,VALID,130,VALID,1.10781,
2010-01-01, 00:55:04,VALID,916.56,VALID,0,VALID,96.5201,VALID,0,VALID,19.0969,VALID,125,VALID,0.881641,
2010-01-01, 00:56:04,VALID,916.556,VALID,0,VALID,96.5048,VALID,0,VALID,19.0969,VALID,125,VALID,0.717578,
2010-01-01, 00:57:04,VALID,916.557,VALID,0,VALID,96.5277,VALID,0,VALID,19.0969,VALID,125,VALID,1.15977,
2010-01-01, 00:58:04,VALID,916.549,VALID,0,VALID,96.5353,VALID,0,VALID,19.0759,VALID,125,VALID,0.603125,
2010-01-01, 00:59:04,VALID,916.527,VALID,0,VALID,96.5124,VALID,0,VALID,19.0564,VALID,117,VALID,1.31133,
2010-01-01, 01:00:04,VALID,916.524,VALID,0,VALID,96.5124,VALID,0,VALID,19.0564,VALID,111,VALID,1.075,
2010-01-01, 01:01:04,VALID,916.506,VALID,0,VALID,96.5048,VALID,0,VALID,19.0564,VALID,125,VALID,1.29883,
2010-01-01, 01:02:04,VALID,916.512,VALID,0.2,VALID,96.5201,VALID,0,VALID,19.0579,VALID,130,VALID,1.32617,
2010-01-01, 01:03:04,VALID,916.514,VALID,0,VALID,96.5048,VALID,0,VALID,19.0369,VALID,141,VALID,1.12031,
2010-01-01, 01:04:04,VALID,916.505,VALID,0,VALID,96.4896,VALID,0,VALID,19.0774,VALID,126,VALID,1.19609,
2010-01-01, 01:05:04,VALID,916.476,VALID,0,VALID,96.4819,VALID,0,VALID,19.0369,VALID,144,VALID,1.12891,
2010-01-01, 01:06:04,VALID,916.482,VALID,0,VALID,96.4438,VALID,0.107441,VALID,19.0369,VALID,120,VALID,1.14609,
2010-01-01, 01:07:04,VALID,916.486,VALID,0,VALID,96.3981,VALID,0,VALID,19.0579,VALID,127,VALID,1.40273,
2010-01-01, 01:08:04,VALID,916.453,VALID,0,VALID,96.36,VALID,0,VALID,19.0369,VALID,146,VALID,1.47539,
2010-01-01, 01:09:04,VALID,916.443,VALID,0,VALID,96.3447,VALID,0,VALID,19.0369,VALID,138,VALID,1.50508,
2010-01-01, 01:10:04,VALID,916.411,VALID,0,VALID,96.299,VALID,0,VALID,19.0369,VALID,112,VALID,1.24453,
2010-01-01, 01:11:04,VALID,916.412,VALID,0,VALID,96.238,VALID,0,VALID,19.0564,VALID,153,VALID,0.973047,
2010-01-01, 01:12:04,VALID,916.378,VALID,0,VALID,96.0932,VALID,0,VALID,19.0564,VALID,136,VALID,1.74297,
2010-01-01, 01:13:04,VALID,916.391,VALID,0,VALID,96.055,VALID,0,VALID,19.0564,VALID,145,VALID,1.28711,
2010-01-01, 01:14:04,VALID,916.369,VALID,0,VALID,95.9941,VALID,0,VALID,19.0774,VALID,123,VALID,1.72617,
2010-01-01, 01:15:04,VALID,916.369,VALID,0,VALID,95.9712,VALID,0,VALID,19.0579,VALID,147,VALID,1.00547,
2010-01-01, 01:16:04,VALID,916.313,VALID,0,VALID,95.9636,VALID,0,VALID,19.0369,VALID,129,VALID,1.6168,
2010-01-01, 01:17:04,VALID,916.315,VALID,0,VALID,95.9483,VALID,0,VALID,19.0579,VALID,133,VALID,1.44375,
2010-01-01, 01:18:04,VALID,916.311,VALID,0,VALID,95.9331,VALID,0,VALID,19.0384,VALID,145,VALID,1.17422,
2010-01-01, 01:19:04,VALID,916.297,VALID,0,VALID,95.9102,VALID,0,VALID,19.0384,VALID,148,VALID,1.26016,
2010-01-01, 01:20:04,VALID,916.29,VALID,0.2,VALID,95.9178,VALID,0,VALID,19.0369,VALID,133,VALID,1.225,
2010-01-01, 01:21:04,VALID,916.27,VALID,0,VALID,95.9483,VALID,0,VALID,19.0175,VALID,130,VALID,1.16992,
2010-01-01, 01:22:04,VALID,916.254,VALID,0,VALID,95.9407,VALID,0,VALID,19.0175,VALID,147,VALID,1.52109,
2010-01-01, 01:23:04,VALID,916.238,VALID,0,VALID,95.9254,VALID,0,VALID,19.0189,VALID,157,VALID,1.44453,
2010-01-01, 01:24:04,VALID,916.235,VALID,0,VALID,95.9788,VALID,0,VALID,19.0384,VALID,127,VALID,0.971484,
2010-01-01, 01:25:04,VALID,916.219,VALID,0,VALID,95.9483,VALID,0,VALID,19.0189,VALID,119,VALID,1.10273,
2010-01-01, 01:26:04,VALID,916.148,VALID,0,VALID,95.9864,VALID,0,VALID,18.998,VALID,115,VALID,0.726172,
2010-01-01, 01:27:04,VALID,916.176,VALID,0,VALID,96.0322,VALID,0,VALID,18.998,VALID,135,VALID,0.923437,
2010-01-01, 01:28:04,VALID,916.147,VALID,0,VALID,96.0703,VALID,0,VALID,18.9785,VALID,135,VALID,1.24219,
2010-01-01, 01:29:04,VALID,916.159,VALID,0,VALID,96.0855,VALID,0,VALID,18.9994,VALID,126,VALID,1.56445,
2010-01-01, 01:30:04,VALID,916.118,VALID,0,VALID,96.055,VALID,0,VALID,18.9785,VALID,120,VALID,1.27852,
2010-01-01, 01:31:04,VALID,916.111,VALID,0,VALID,96.0779,VALID,0,VALID,18.9785,VALID,120,VALID,1.16406,
2010-01-01, 01:32:04,VALID,916.091,VALID,0,VALID,96.0932,VALID,0.107441,VALID,18.9785,VALID,133,VALID,1.33125,
2010-01-01, 01:33:04,VALID,916.082,VALID,0,VALID,96.0855,VALID,0,VALID,18.9785,VALID,123,VALID,1.39492,
2010-01-01, 01:34:04,VALID,916.047,VALID,0,VALID,96.1008,VALID,0,VALID,18.9785,VALID,123,VALID,1.28555,
2010-01-01, 01:35:04,VALID,916.05,VALID,0,VALID,96.1313,VALID,0,VALID,18.998,VALID,118,VALID,0.786719,
2010-01-01, 01:36:04,VALID,915.991,VALID,0,VALID,96.1465,VALID,0,VALID,18.9785,VALID,118,VALID,0.873438,
2010-01-01, 01:37:04,VALID,915.968,VALID,0,VALID,96.1236,VALID,0.107441,VALID,18.9785,VALID,117,VALID,1.17539,
2010-01-01, 01:38:04,VALID,915.947,VALID,0,VALID,96.1465,VALID,0,VALID,18.9785,VALID,117,VALID,1.20781,
2010-01-01, 01:39:04,VALID,915.952,VALID,0,VALID,96.1846,VALID,0,VALID,18.9799,VALID,117,VALID,1.31875,
2010-01-01, 01:40:04,VALID,915.914,VALID,0,VALID,96.2151,VALID,0,VALID,18.9785,VALID,117,VALID,0.857031,
2010-01-01, 01:41:04,VALID,915.901,VALID,0,VALID,96.2761,VALID,0.107441,VALID,18.959,VALID,117,VALID,0.9375,
2010-01-01, 01:42:04,VALID,915.908,VALID,0,VALID,96.2609,VALID,0,VALID,18.9395,VALID,105,VALID,1.05156,
2010-01-01, 01:43:04,VALID,915.877,VALID,0,VALID,96.3066,VALID,0.107441,VALID,18.959,VALID,140,VALID,0.770312,
2010-01-01, 01:44:04,VALID,915.873,VALID,0,VALID,96.3371,VALID,0.107441,VALID,18.9799,VALID,126,VALID,1.05703,
2010-01-01, 01:45:04,VALID,915.832,VALID,0,VALID,96.3066,VALID,0,VALID,18.959,VALID,126,VALID,0.957422,
2010-01-01, 01:46:04,VALID,915.836,VALID,0,VALID,96.3295,VALID,0,VALID,18.959,VALID,126,VALID,0.892969,
2010-01-01, 01:47:04,VALID,915.82,VALID,0,VALID,96.3371,VALID,0,VALID,18.9395,VALID,124,VALID,0.974609,
2010-01-01, 01:48:04,VALID,915.829,VALID,0,VALID,96.3447,VALID,0,VALID,18.9604,VALID,123,VALID,0.866016,
2010-01-01, 01:49:04,VALID,915.809,VALID,0,VALID,96.36,VALID,0,VALID,18.9604,VALID,123,VALID,0.756641,
2010-01-01, 01:50:04,VALID,915.816,VALID,0,VALID,96.3676,VALID,0.107441,VALID,18.9395,VALID,123,VALID,0.623438,
2010-01-01, 01:51:04,VALID,915.792,VALID,0,VALID,96.3447,VALID,0,VALID,18.9395,VALID,123,VALID,1.07266,
2010-01-01, 01:52:04,VALID,915.788,VALID,0,VALID,96.36,VALID,0,VALID,18.9604,VALID,123,VALID,0.890625,
2010-01-01, 01:53:04,VALID,915.762,VALID,0,VALID,96.3371,VALID,0,VALID,18.959,VALID,123,VALID,1.21172,
2010-01-01, 01:54:04,VALID,915.784,VALID,0,VALID,96.2837,VALID,0,VALID,18.959,VALID,123,VALID,0.960156,
2010-01-01, 01:55:04,VALID,915.762,VALID,0,VALID,96.2456,VALID,0,VALID,18.9994,VALID,122,VALID,0.994531,
2010-01-01, 01:56:04,VALID,915.723,VALID,0,VALID,96.2228,VALID,0,VALID,18.959,VALID,114,VALID,1.1918,
2010-01-01, 01:57:04,VALID,915.71,VALID,0,VALID,96.177,VALID,0,VALID,18.9785,VALID,113,VALID,1.02539,
2010-01-01, 01:58:04,VALID,915.684,VALID,0,VALID,96.1541,VALID,0,VALID,18.9785,VALID,113,VALID,0.54375,
2010-01-01, 01:59:04,VALID,915.66,VALID,0,VALID,96.1389,VALID,0,VALID,18.9799,VALID,113,VALID,0.798828,
2010-01-01, 02:00:04,VALID,915.669,VALID,0,VALID,96.1846,VALID,0,VALID,18.959,VALID,113,VALID,0.801172,
2010-01-01, 02:01:04,VALID,915.643,VALID,0,VALID,96.1999,VALID,0,VALID,18.959,VALID,113,VALID,1.31875,
2010-01-01, 02:02:04,VALID,915.619,VALID,0,VALID,96.2075,VALID,0.107441,VALID,18.959,VALID,114,VALID,1.17344,
2010-01-01, 02:03:04,VALID,915.609,VALID,0,VALID,96.1846,VALID,0,VALID,18.959,VALID,132,VALID,1.46211,
2010-01-01, 02:04:04,VALID,915.594,VALID,0,VALID,96.177,VALID,0,VALID,18.9994,VALID,141,VALID,0.884375,
2010-01-01, 02:05:04,VALID,915.537,VALID,0,VALID,96.2456,VALID,0,VALID,19.0189,VALID,162,VALID,0.780469,
2010-01-01, 02:06:04,VALID,915.522,VALID,0,VALID,96.1923,VALID,0,VALID,19.0189,VALID,134,VALID,0.553516,
2010-01-01, 02:07:04,VALID,915.494,VALID,0,VALID,96.2228,VALID,0,VALID,19.0189,VALID,160,VALID,1.02695,
2010-01-01, 02:08:04,VALID,915.461,VALID,0,VALID,96.1846,VALID,0.107441,VALID,18.998,VALID,161,VALID,0.765625,
2010-01-01, 02:09:04,VALID,915.467,VALID,0,VALID,96.2609,VALID,0,VALID,18.9785,VALID,168,VALID,1.20742,
2010-01-01, 02:10:04,VALID,915.439,VALID,0,VALID,96.3219,VALID,0,VALID,18.9785,VALID,158,VALID,0.45,
2010-01-01, 02:11:04,VALID,915.39,VALID,0,VALID,96.3676,VALID,0,VALID,18.9785,VALID,144,VALID,0.937109,
2010-01-01, 02:12:04,VALID,915.396,VALID,0,VALID,96.3905,VALID,0,VALID,18.9785,VALID,147,VALID,1.05664,
2010-01-01, 02:13:04,VALID,915.359,VALID,0,VALID,96.3142,VALID,0,VALID,18.9799,VALID,150,VALID,1.37656,
2010-01-01, 02:14:04,VALID,915.379,VALID,0,VALID,96.2837,VALID,0,VALID,18.9785,VALID,152,VALID,1.10117,
2010-01-01, 02:15:04,VALID,915.317,VALID,0,VALID,96.2914,VALID,0,VALID,18.9994,VALID,186,VALID,0.907812,
2010-01-01, 02:16:04,VALID,915.303,VALID,0,VALID,96.1618,VALID,0,VALID,18.9785,VALID,185,VALID,0.870313,
2010-01-01, 02:17:04,VALID,915.321,VALID,0,VALID,96.1008,VALID,0,VALID,18.998,VALID,159,VALID,1.12539,
2010-01-01, 02:18:04,VALID,915.272,VALID,0,VALID,96.0474,VALID,0,VALID,18.9785,VALID,165,VALID,1.04102,
2010-01-01, 02:19:04,VALID,915.261,VALID,0,VALID,95.9559,VALID,0,VALID,18.9994,VALID,165,VALID,1.01445,
2010-01-01, 02:20:04,VALID,915.224,VALID,0,VALID,95.9102,VALID,0,VALID,19.0189,VALID,165,VALID,0.740625,
2010-01-01, 02:21:04,VALID,915.217,VALID,0,VALID,95.8111,VALID,0,VALID,19.0189,VALID,136,VALID,1.46836,
2010-01-01, 02:22:04,VALID,915.202,VALID,0,VALID,95.7882,VALID,0,VALID,19.0189,VALID,127,VALID,0.791406,
2010-01-01, 02:23:04,VALID,915.179,VALID,0,VALID,95.7196,VALID,0,VALID,19.0189,VALID,127,VALID,1.20703,
2010-01-01, 02:24:04,VALID,915.158,VALID,0,VALID,95.7577,VALID,0,VALID,19.0189,VALID,126,VALID,0.874219,
2010-01-01, 02:25:04,VALID,915.16,VALID,0,VALID,95.7272,VALID,0,VALID,18.9785,VALID,126,VALID,0.742578,
2010-01-01, 02:26:04,VALID,915.108,VALID,0,VALID,95.7806,VALID,0,VALID,19.0189,VALID,104,VALID,0.636719,
2010-01-01, 02:27:04,VALID,915.124,VALID,0,VALID,95.8797,VALID,0,VALID,18.998,VALID,104,VALID,0.358594,
2010-01-01, 02:28:04,VALID,915.072,VALID,0,VALID,95.7806,VALID,0,VALID,18.9785,VALID,114,VALID,0.991797,
2010-01-01, 02:29:04,VALID,915.082,VALID,0,VALID,95.7958,VALID,0,VALID,18.9785,VALID,115,VALID,1.07148,
2010-01-01, 02:30:04,VALID,915.068,VALID,0,VALID,95.7958,VALID,0,VALID,18.9604,VALID,115,VALID,1.01875,
2010-01-01, 02:31:04,VALID,915.047,VALID,0,VALID,95.7882,VALID,0,VALID,18.9395,VALID,129,VALID,1.15937,
2010-01-01, 02:32:04,VALID,915.035,VALID,0,VALID,95.8187,VALID,0,VALID,18.9395,VALID,107,VALID,0.959766,
2010-01-01, 02:33:04,VALID,914.997,VALID,0,VALID,95.7958,VALID,0,VALID,18.9409,VALID,115,VALID,1.41211,
2010-01-01, 02:34:04,VALID,914.976,VALID,0,VALID,95.8111,VALID,0,VALID,18.9604,VALID,126,VALID,0.778906,
2010-01-01, 02:35:04,VALID,914.953,VALID,0,VALID,95.8416,VALID,0,VALID,18.9395,VALID,138,VALID,1.10898,
2010-01-01, 02:36:04,VALID,914.946,VALID,0,VALID,95.8111,VALID,0,VALID,18.92,VALID,145,VALID,1.06992,
2010-01-01, 02:37:04,VALID,914.914,VALID,0,VALID,95.8035,VALID,0,VALID,18.9604,VALID,150,VALID,0.259375,
2010-01-01, 02:38:04,VALID,914.901,VALID,0,VALID,95.7806,VALID,0,VALID,18.9409,VALID,150,VALID,0.797656,
2010-01-01, 02:39:04,VALID,914.904,VALID,0,VALID,95.8111,VALID,0,VALID,18.9005,VALID,150,VALID,0.373437,
2010-01-01, 02:40:04,VALID,914.874,VALID,0,VALID,95.9026,VALID,0,VALID,18.9214,VALID,150,VALID,0.810156,
2010-01-01, 02:41:04,VALID,914.86,VALID,0,VALID,95.9788,VALID,0,VALID,18.9214,VALID,150,VALID,0.302344,
2010-01-01, 02:42:04,VALID,914.846,VALID,0,VALID,96.0779,VALID,0,VALID,18.9409,VALID,150,VALID,0.391016,
2010-01-01, 02:43:04,VALID,914.836,VALID,0,VALID,95.9941,VALID,0,VALID,18.9214,VALID,159,VALID,0.956641,
2010-01-01, 02:44:04,VALID,914.798,VALID,0,VALID,96.0017,VALID,0,VALID,18.9409,VALID,159,VALID,0.833984,
2010-01-01, 02:45:04,VALID,914.792,VALID,0,VALID,95.9559,VALID,0,VALID,18.92,VALID,159,VALID,1.09727,
2010-01-01, 02:46:04,VALID,914.749,VALID,0,VALID,95.9254,VALID,0,VALID,18.92,VALID,159,VALID,1.07539,
2010-01-01, 02:47:04,VALID,914.734,VALID,0,VALID,95.895,VALID,0,VALID,18.9395,VALID,159,VALID,0.713281,
2010-01-01, 02:48:04,VALID,914.691,VALID,0,VALID,95.7958,VALID,0,VALID,18.9395,VALID,159,VALID,1.37891,
2010-01-01, 02:49:04,VALID,914.684,VALID,0,VALID,95.712,VALID,0,VALID,18.9799,VALID,159,VALID,1.26172,
2010-01-01, 02:50:04,VALID,914.663,VALID,0,VALID,95.6357,VALID,0,VALID,18.9604,VALID,146,VALID,1.2668,
2010-01-01, 02:51:04,VALID,914.632,VALID,0,VALID,95.6053,VALID,0,VALID,18.9799,VALID,112,VALID,0.908984,
2010-01-01, 02:52:04,VALID,914.602,VALID,0,VALID,95.5595,VALID,0,VALID,18.959,VALID,140,VALID,1.29102,
2010-01-01, 02:53:04,VALID,914.588,VALID,0,VALID,95.4833,VALID,0,VALID,18.959,VALID,135,VALID,1.63477,
2010-01-01, 02:54:04,VALID,914.556,VALID,0,VALID,95.4985,VALID,0,VALID,18.9799,VALID,160,VALID,1.10859,
2010-01-01, 02:55:04,VALID,914.538,VALID,0,VALID,95.4528,VALID,0,VALID,18.9799,VALID,138,VALID,1.31836,
2010-01-01, 02:56:04,VALID,914.551,VALID,0,VALID,95.5062,VALID,0,VALID,18.9604,VALID,113,VALID,1.15625,
2010-01-01, 02:57:04,VALID,914.521,VALID,0,VALID,95.4757,VALID,0,VALID,18.959,VALID,125,VALID,1.47656,
2010-01-01, 02:58:04,VALID,914.477,VALID,0,VALID,95.4223,VALID,0,VALID,18.959,VALID,147,VALID,1.39766,
2010-01-01, 02:59:04,VALID,914.451,VALID,0,VALID,95.4833,VALID,0,VALID,18.9785,VALID,142,VALID,0.658594,
2010-01-01, 03:00:04,VALID,914.446,VALID,0,VALID,95.3842,VALID,0,VALID,18.9785,VALID,151,VALID,1.95469,
2010-01-01, 03:01:04,VALID,914.419,VALID,0,VALID,95.3613,VALID,0,VALID,18.9994,VALID,138,VALID,1.41094,
2010-01-01, 03:02:04,VALID,914.425,VALID,0,VALID,95.3918,VALID,0,VALID,18.9994,VALID,157,VALID,0.705469,
2010-01-01, 03:03:04,VALID,914.416,VALID,0,VALID,95.4528,VALID,0,VALID,18.998,VALID,142,VALID,0.799219,
2010-01-01, 03:04:04,VALID,914.408,VALID,0,VALID,95.5519,VALID,0,VALID,18.9799,VALID,119,VALID,0.328516,
2010-01-01, 03:05:04,VALID,914.397,VALID,0,VALID,95.5976,VALID,0,VALID,18.9799,VALID,177,VALID,1.53555,
2010-01-01, 03:06:04,VALID,914.365,VALID,0,VALID,95.6815,VALID,0,VALID,18.9785,VALID,164,VALID,0.573828,
2010-01-01, 03:07:04,VALID,914.376,VALID,0,VALID,95.7501,VALID,0,VALID,18.9799,VALID,164,VALID,0.946094,
2010-01-01, 03:08:04,VALID,914.344,VALID,0,VALID,95.7654,VALID,0,VALID,18.959,VALID,164,VALID,1.11055,
2010-01-01, 03:09:04,VALID,914.355,VALID,0,VALID,95.6967,VALID,0,VALID,18.9604,VALID,128,VALID,1.1457,
2010-01-01, 03:10:04,VALID,914.347,VALID,0,VALID,95.651,VALID,0,VALID,18.9799,VALID,173,VALID,0.953516,
2010-01-01, 03:11:04,VALID,914.337,VALID,0,VALID,95.6281,VALID,0,VALID,18.959,VALID,157,VALID,0.916797,
2010-01-01, 03:12:04,VALID,914.317,VALID,0,VALID,95.5748,VALID,0,VALID,18.9799,VALID,152,VALID,1.75117,
2010-01-01, 03:13:04,VALID,914.327,VALID,0,VALID,95.5976,VALID,0,VALID,18.9604,VALID,205,VALID,0.423047,
2010-01-01, 03:14:04,VALID,914.341,VALID,0,VALID,95.6357,VALID,0,VALID,18.9799,VALID,141,VALID,0.670313,
2010-01-01, 03:15:04,VALID,914.288,VALID,0,VALID,95.6739,VALID,0,VALID,18.9799,VALID,142,VALID,1.07656,
2010-01-01, 03:16:04,VALID,914.301,VALID,0,VALID,95.7196,VALID,0,VALID,18.9395,VALID,201,VALID,0.867969,
2010-01-01, 03:17:04,VALID,914.29,VALID,0,VALID,95.7577,VALID,0,VALID,18.9604,VALID,199,VALID,1.42461,
2010-01-01, 03:18:04,VALID,914.293,VALID,0,VALID,95.5976,VALID,0,VALID,18.9395,VALID,168,VALID,1.82344,
2010-01-01, 03:19:04,VALID,914.279,VALID,0,VALID,95.4985,VALID,0,VALID,18.959,VALID,202,VALID,1.16719,
2010-01-01, 03:20:04,VALID,914.244,VALID,0,VALID,95.3766,VALID,0,VALID,18.9994,VALID,169,VALID,1.48398,
2010-01-01, 03:21:04,VALID,914.287,VALID,0,VALID,95.3384,VALID,0,VALID,19.0384,VALID,219,VALID,0.414063,
2010-01-01, 03:22:04,VALID,914.239,VALID,0,VALID,95.3003,VALID,0,VALID,18.998,VALID,201,VALID,1.18281,
2010-01-01, 03:23:04,VALID,914.261,VALID,0,VALID,95.2927,VALID,0,VALID,19.0384,VALID,221,VALID,0.625391,
2010-01-01, 03:24:04,VALID,914.268,VALID,0,VALID,95.3156,VALID,0,VALID,19.0189,VALID,221,VALID,0.786328,
2010-01-01, 03:25:04,VALID,914.25,VALID,0,VALID,95.3537,VALID,0,VALID,19.0175,VALID,221,VALID,0.716016,
2010-01-01, 03:26:04,VALID,914.244,VALID,0,VALID,95.4375,VALID,0,VALID,19.0175,VALID,221,VALID,0.221094,
2010-01-01, 03:27:04,VALID,914.247,VALID,0,VALID,95.4909,VALID,0,VALID,18.9994,VALID,221,VALID,0.403125,
2010-01-01, 03:28:04,VALID,914.25,VALID,0,VALID,95.468,VALID,0,VALID,18.9994,VALID,220,VALID,0.922266,
2010-01-01, 03:29:04,VALID,914.223,VALID,0,VALID,95.3689,VALID,0,VALID,18.9994,VALID,220,VALID,0.837109,
2010-01-01, 03:30:04,VALID,914.223,VALID,0,VALID,95.3994,VALID,0,VALID,18.998,VALID,220,VALID,0.333984,
2010-01-01, 03:31:04,VALID,914.218,VALID,0,VALID,95.3994,VALID,0,VALID,19.0189,VALID,220,VALID,0.339063,
2010-01-01, 03:32:04,VALID,914.203,VALID,0,VALID,95.3918,VALID,0,VALID,18.9994,VALID,220,VALID,0.339453,
2010-01-01, 03:33:04,VALID,914.227,VALID,0,VALID,95.5062,VALID,0,VALID,18.9994,VALID,220,VALID,0.489453,
2010-01-01, 03:34:04,VALID,914.19,VALID,0,VALID,95.4833,VALID,0,VALID,18.998,VALID,218,VALID,1.0582,
2010-01-01, 03:35:04,VALID,914.162,VALID,0,VALID,95.5748,VALID,0,VALID,18.9994,VALID,200,VALID,0.141797,
2010-01-01, 03:36:04,VALID,914.158,VALID,0,VALID,95.651,VALID,0,VALID,18.9994,VALID,199,VALID,0.242969,
2010-01-01, 03:37:04,VALID,914.181,VALID,0,VALID,95.7654,VALID,0,VALID,18.9799,VALID,199,VALID,0.272266,
2010-01-01, 03:38:04,VALID,914.164,VALID,0,VALID,95.6815,VALID,0,VALID,18.9799,VALID,199,VALID,0.00273437,
2010-01-01, 03:39:04,VALID,914.158,VALID,0,VALID,95.6281,VALID,0,VALID,18.9409,VALID,199,VALID,0.200391,
2010-01-01, 03:40:04,VALID,914.125,VALID,0,VALID,95.6662,VALID,0,VALID,18.9214,VALID,179,VALID,0.279687,
2010-01-01, 03:41:04,VALID,914.112,VALID,0,VALID,95.7196,VALID,0,VALID,18.9005,VALID,152,VALID,0.337109,
2010-01-01, 03:42:04,VALID,914.103,VALID,0,VALID,95.7882,VALID,0,VALID,18.9019,VALID,152,VALID,0.151953,
2010-01-01, 03:43:04,VALID,914.115,VALID,0,VALID,95.9254,VALID,0,VALID,18.9214,VALID,152,VALID,0.0636719,
2010-01-01, 03:44:04,VALID,914.091,VALID,0,VALID,95.895,VALID,0,VALID,18.9019,VALID,152,VALID,0.410547,